Other Surface Observations
Issued by NWS Tucson, AZ

Home | Current Version | Previous Version | Text Only | Print | Product List | Glossary On
Versions: 1 2 3 4 5 6 7 8 9 10 11 12 13 14 15 16 17 18 19 20 21 22 23 24 25 26 27 28 29 30 31 32 33 34 35 36 37 38 39 40 41 42 43 44 45 46 47 48 49 50
000
SXUS55 KTWC 302315
OSOTWC

WEATHER ROUNDUP FOR SOUTHEAST ARIZONA
NATIONAL WEATHER SERVICE TUCSON AZ
415 PM MST FRI JAN 30 2015

AZZ504>506-514-310015-
LOCATION       SKY/WX    TMP DP  RH WIND       PRES   REMARKS
TUCSON         RAIN      57  55  93 W8        29.86S FOG
DAVIS-MONTHAN  HVY RAIN  57  55  94 SW6       29.84S FOG
CHILDRENS PARK N/A       59  54  85 SE7               PIMA CO DEQ
ALVERNON/22ND  N/A      N/A N/A N/A N/A               PIMA CO DEQ
CHERRY/GLENN   N/A      N/A N/A N/A N/A               PIMA CO DEQ
TANGERINE      N/A       58 N/A N/A SW5               PIMA CO DEQ
CONTL RANCH    N/A       58  55  91 W4                PIMA CO DEQ
GRANT/1ST      N/A       59  55  86 W4                PIMA CO DEQ
CRAYCROFT/22ND N/A      N/A N/A N/A N/A               PIMA CO DEQ
GOLFLINKS/KOLB N/A       57  55  92 E5                PIMA CO DEQ
AJO/12TH       N/A       60  54  82 SE5               PIMA CO DEQ
SAGUARO EAST   N/A      N/A N/A N/A N/A               PIMA CO DEQ
FAIRGROUNDS    N/A       56 N/A N/A E11               PIMA CO DEQ
SAGUARO        N/A       59  55  86 NE3               *SABINO CYN
SAN CARLOS     N/A       50  46  86 SE10G19           *SAN CARLOS
GREEN VALLEY   N/A       60  54  82 S6                PIMA CO DEQ
HORSE CAMP CYN N/A       45  43  94 E21G30            *ARAVAIPA CYN
RINCON MTNS    N/A       40  40  100 S2G10            *NR MANNING CAMP
$$

AZZ509>511-310015-
LOCATION       SKY/WX    TMP DP  RH WIND       PRES   REMARKS
SAFFORD        LGT RAIN  47  45  93 S7        29.94S FOG
STRAY HORSE    N/A       33  32  96 E3                *
TRAIL CABIN    N/A       38  38  99 E6G16             *N OF GRANVILLE
BLACK HILLS    N/A       47  46  96 SE14G23           *N OF FT THOMAS
DRY LAKE       N/A       35  35  100 SE10G16          *NATANES MTNS
NOON CREEK     N/A       42  39  90 E5G16             *PINALENO MTNS
COLUMBINE      N/A       33  33  100 S7G20            *PINALENO MTNS
GUTHRIE        N/A       37  37  100 E9G28            *SW OF GUTHRIE
$$

AZZ502-503-513-310015-
LOCATION       SKY/WX    TMP DP  RH WIND       PRES   REMARKS
NOGALES        RAIN      53  49  86 SW18      29.88S FOG
SELLS          N/A       57  57  100 W5G12            *
SASABE         N/A       55  53  94 CALM              *ALTAR VLY
HOPKINS        N/A       43  43  100 W6G20            *SANTA RITA MTNS
CARR CYN       N/A       50  46  87 NW3G11            *W OF HEREFORD
$$

AZZ507-508-512-310015-
LOCATION       SKY/WX    TMP DP  RH WIND       PRES   REMARKS
SIERRA VISTA   LGT RAIN  52  50  93 E5        29.89F FOG
DOUGLAS        CLOUDY    51  48  89 SE15G24   29.91F
EMPIRE MTNS    N/A       53  51  92 S6G11             *LAS CIENEGAS NCA
MULESHOE RANCH N/A       49  46  91 SE9G14            *PRESERVE
HEADQUARTERS   N/A       48  44  86 NE3G14            *CHIRICAHUA MTNS
$$

.............................NOTES.............................
THIS IS AN AUTOMATED COLLECTIVE WITH MINIMAL QUALITY CONTROL.
PIMA CO DEQ SITES HAVE NONSTANDARD WIND SENSOR HEIGHTS.
PIMA CO DEQ SITES DO NOT REPORT WIND GUSTS.
* INDICATES WIND SENSORS LOCATED AT 20 FEET INSTEAD OF 33 FEET.
..............................KEY..............................
SKY/WX - SKY CONDITION/WEATHER
TMP    - TEMPERATURE IN FAHRENHEIT
DP     - DEWPOINT IN FAHRENHEIT
RH     - RELATIVE HUMIDITY IN PERCENT
WIND   - DIRECTION AND SPEED IN MILES PER HOUR (MPH)
VRB    - VARIABLE WIND DIRECTION
PRES   - MEAN SEA LEVEL PRESSURE IN INCHES OF MERCURY
         F - FALLING PRESSURE   R - RISING PRESSURE
         S - STEADY PRESSURE
VSB    - VISIBILITY IN MILES
HX     - HEAT INDEX IN FAHRENHEIT
WCI    - WIND CHILL INDEX IN FAHRENHEIT
N/A    - NOT AVAILABLE
AFB    - AIR FORCE BASE
         DAVIS-MONTHAN IS DAVIS-MONTHAN AIR FORCE BASE
CYN    - CANYON
MTNS   - MOUNTAINS
NCA    - NATIONAL CONSERVATION AREA
NR     - NEAR
VLY    - VALLEY
CONTL  - CONTINENTAL
PIMA CO DEQ - PIMA COUNTY DEPT OF ENVIRONMENTAL QUALITY



USA.gov is the U.S. government's official web portal to all federal, state and local government web resources and services.